Bluefield, WV

11:23 PM EDT on June 22, 2017 (GMT -0400)
Mercer County

Weather History for KBLF - November, 2011

Change the Weather History Date:

Thursday, November 17, 2011

  Actual Average Record
Temperature  
Mean Temperature 38 °F 47 °F  
Max Temperature 46 °F 55 °F 71 °F (2013)
Min Temperature 29 °F 38 °F 11 °F (1959)
Degree Days  
Heating Degree Days 27 18  
Month to date heating degree days 235 266  
Since 1 July heating degree days 634 630  
Cooling Degree Days 0 0  
Month to date cooling degree days 0 0  
Year to date cooling degree days 1102 851  
Moisture  
Dew Point 30 °F    
Average Humidity 70    
Maximum Humidity 92    
Minimum Humidity 47    
Precipitation  
Precipitation 0.13 in 0.10 in 1.02 in (1987)
Month to date precipitation 1.69 1.47  
Year to date precipitation 38.32 35.50  
Snow  
Snow 0.20 in - - ()
Month to date snowfall 0.3  
Since 1 July snowfall 0.3  
Since 1 September snowfall 0.3  
Snow Depth 0.00 in    
Sea Level Pressure  
Sea Level Pressure 30.05 in    
Wind  
Wind Speed 9 mph (NW)    
Max Wind Speed 21 mph    
Max Gust Speed 26 mph    
Visibility 7 miles    
Events Rain , Snow    
T = Trace of Precipitation, MM = Missing Value Source: NWS Daily Summary

Daily Weather History Graph

Daily Weather History Graph

Search for Another Location

Airport or City:

Trip Planner

Search our weather history database for the weather conditions in past years. The results will help you decide how hot, cold, wet, or windy it might be!

Date:

Astronomy

Nov. 17, 2011 Rise Set
Actual Time 7:05 AM EST 5:13 PM EST
Civil Twilight 6:37 AM EST 5:41 PM EST
Nautical Twilight 6:06 AM EST 6:12 PM EST
Astronomical Twilight 5:35 AM EST 6:43 PM EST
Moon 11:29 PM EST (11/17) 12:16 PM EST (11/17)
Length of Visible Light 11h 03m
Length of Day
10h 07m
Waning Gibbous, 60% of the Moon is Illuminated
Nov 17
Waning Gibbous
Nov 18
Last Quarter
Nov 25
New
Dec 2
First Quarter
Dec 10
Full

Hourly Weather History & Observations

Time (EST) Temp. Windchill Dew Point Humidity Pressure Visibility Wind Dir Wind Speed Gust Speed Precip Events Conditions
12:34 AM 46.4 °F 45.2 °F 39.2 °F 76% 29.94 in 10.0 mi North 3.5 mph - N/A   Overcast
12:52 AM 46.0 °F 44.8 °F 41.0 °F 83% 29.90 in 10.0 mi NNW 3.5 mph - N/A   Overcast
1:38 AM 44.6 °F - 42.8 °F 93% 29.91 in 5.0 mi Calm Calm - N/A   Overcast
1:52 AM 45.0 °F 43.5 °F 42.1 °F 90% 29.91 in 4.0 mi West 3.5 mph - N/A   Overcast
2:16 AM 44.6 °F - 42.8 °F 93% 29.93 in 2.5 mi Calm Calm - 0.01 in   Overcast
2:52 AM 45.0 °F - 42.1 °F 90% 29.90 in 2.0 mi Calm Calm - 0.02 in Rain Light Rain
3:08 AM 44.6 °F 42.2 °F 42.8 °F 93% 29.93 in 3.0 mi NW 4.6 mph - 0.01 in Rain Light Rain
3:16 AM 44.6 °F 40.2 °F 42.8 °F 93% 29.93 in 2.5 mi North 8.1 mph - 0.02 in Rain Light Rain
3:23 AM 44.6 °F 41.4 °F 41.0 °F 87% 29.93 in 3.0 mi NNW 5.8 mph - 0.03 in Rain Light Rain
3:52 AM 43.0 °F 38.2 °F 39.0 °F 86% 29.91 in 7.0 mi North 8.1 mph - 0.05 in Rain Light Rain
3:59 AM 42.8 °F 38.0 °F 39.2 °F 87% 29.92 in 7.0 mi North 8.1 mph - 0.01 in Rain Light Rain
4:12 AM 42.8 °F 41.1 °F 39.2 °F 87% 29.93 in 8.0 mi NW 3.5 mph - 0.01 in Rain Light Rain
4:52 AM 39.9 °F 35.1 °F 36.0 °F 86% 29.94 in 9.0 mi NNW 6.9 mph - 0.03 in Rain Light Rain
5:17 AM 39.2 °F 35.9 °F 35.6 °F 87% 29.95 in 10.0 mi NNW 4.6 mph - 0.01 in Rain Light Rain
5:31 AM 39.2 °F 34.2 °F 35.6 °F 87% 29.94 in 10.0 mi NW 6.9 mph - 0.01 in Rain Light Rain
5:52 AM 39.9 °F 37.8 °F 36.0 °F 86% 29.94 in 10.0 mi Variable 3.5 mph - 0.01 in   Overcast
6:52 AM 37.9 °F 32.1 °F 34.0 °F 86% 29.99 in 7.0 mi NNW 8.1 mph - 0.01 in Rain Light Rain
7:07 AM 37.4 °F 32.1 °F 33.8 °F 87% 30.00 in 10.0 mi NNW 6.9 mph - 0.00 in   Overcast
7:26 AM 37.4 °F 32.1 °F 32.0 °F 81% 30.00 in 10.0 mi NNW 6.9 mph - 0.00 in   Overcast
7:35 AM 37.4 °F 32.8 °F 32.0 °F 81% 30.00 in 10.0 mi Variable 5.8 mph - 0.00 in   Overcast
7:52 AM 37.0 °F 31.6 °F 32.0 °F 82% 30.01 in 10.0 mi NW 6.9 mph - 0.00 in   Overcast
8:00 AM 37.4 °F 31.4 °F 32.0 °F 81% 30.01 in 10.0 mi WNW 8.1 mph - N/A   Overcast
8:52 AM 36.0 °F 27.1 °F 30.9 °F 82% 30.04 in 10.0 mi WNW 13.8 mph - N/A   Overcast
9:22 AM 35.6 °F 28.0 °F 30.2 °F 81% 30.04 in 8.0 mi NW 10.4 mph - 0.00 in Snow Light Snow
9:47 AM 35.6 °F 28.6 °F 28.4 °F 75% 30.05 in 10.0 mi NW 9.2 mph 19.6 mph 0.00 in   Overcast
9:52 AM 36.0 °F 29.0 °F 28.9 °F 76% 30.06 in 10.0 mi NW 9.2 mph 19.6 mph 0.00 in   Overcast
10:14 AM 35.6 °F 28.0 °F 30.2 °F 81% 30.05 in 5.0 mi WNW 10.4 mph - 0.00 in Snow Light Snow
10:20 AM 35.6 °F 28.6 °F 30.2 °F 81% 30.05 in 2.5 mi WNW 9.2 mph - 0.00 in Snow Light Snow
10:31 AM 35.6 °F 28.0 °F 30.2 °F 81% 30.05 in 2.5 mi WNW 10.4 mph - 0.00 in Snow Light Snow
11:07 AM 33.8 °F 25.3 °F 28.4 °F 81% 30.07 in 1.0 mi NW 11.5 mph - 0.01 in Snow Light Snow
11:20 AM 33.8 °F 25.3 °F 28.4 °F 81% 30.06 in 2.0 mi WNW 11.5 mph 20.7 mph 0.01 in Snow Light Snow
11:28 AM 33.8 °F 24.8 °F 28.4 °F 81% 30.06 in 8.0 mi NW 12.7 mph 18.4 mph 0.01 in   Overcast
11:52 AM 33.1 °F 26.9 °F 28.0 °F 82% 30.08 in 5.0 mi WNW 6.9 mph 19.6 mph 0.01 in Snow Light Snow
12:03 PM 32.0 °F 21.6 °F 28.4 °F 87% 30.06 in 2.0 mi WNW 15.0 mph 20.7 mph 0.00 in Snow Light Snow
12:12 PM 32.0 °F 23.6 °F 28.4 °F 87% 30.07 in 9.0 mi WNW 10.4 mph - 0.00 in   Overcast
4:52 PM 32.0 °F 22.1 °F 21.9 °F 66% 30.18 in 5.0 mi NW 13.8 mph 20.7 mph N/A   Haze
4:55 PM 32.0 °F 20.8 °F 21.2 °F 64% 30.15 in 1.8 mi NW 17.3 mph 26.5 mph 0.00 in Snow Light Snow
5:03 PM 30.2 °F 21.9 °F 24.8 °F 80% 30.15 in 0.5 mi WNW 9.2 mph 26.5 mph 0.00 in Snow Snow
5:10 PM 30.2 °F 22.6 °F 24.8 °F 80% 30.15 in 1.2 mi WNW 8.1 mph 25.3 mph 0.00 in Snow Light Snow
5:16 PM 30.2 °F 20.8 °F 24.8 °F 80% 30.15 in 3.0 mi WNW 11.5 mph 19.6 mph 0.00 in Snow Light Snow
5:23 PM 30.2 °F 21.9 °F 23.0 °F 75% 30.15 in 9.0 mi WNW 9.2 mph 20.7 mph 0.00 in   Mostly Cloudy
5:52 PM 30.9 °F 24.3 °F 21.9 °F 69% 30.19 in 10.0 mi WNW 6.9 mph - 0.00 in   Scattered Clouds
6:52 PM 30.0 °F 23.2 °F 21.0 °F 69% 30.22 in 10.0 mi WNW 6.9 mph - N/A   Clear
7:52 PM 30.9 °F 22.2 °F 16.0 °F 54% 30.25 in 10.0 mi WNW 10.4 mph - N/A   Clear
8:52 PM 30.9 °F 21.7 °F 14.0 °F 50% 30.26 in 10.0 mi WNW 11.5 mph 18.4 mph N/A   Clear
9:52 PM 30.0 °F 20.5 °F 12.9 °F 49% 30.28 in 10.0 mi WNW 11.5 mph 17.3 mph N/A   Clear
10:52 PM 30.0 °F 19.1 °F 12.9 °F 49% 30.31 in 10.0 mi NW 15.0 mph 20.7 mph N/A   Clear
11:52 PM 28.9 °F 18.6 °F 10.0 °F 45% 30.32 in 10.0 mi NW 12.7 mph - N/A   Clear